Regional Weather Roundup
Issued by NWS Northern Indiana

Home | Current Version | Previous Version | Graphics & Text | Print | Product List | Glossary On
Versions: 1 2 3 4 5 6 7 8 9 10 11 12 13 14 15 16 17 18 19 20 21 22 23 24 25 26 27 28 29 30 31 32 33 34 35 36 37 38 39 40 41 42 43 44 45 46 47 48 49 50
000
ASUS43 KIWX 310610
RWRIWX

KIWX WEATHER ROUNDUP
NATIONAL WEATHER SERVICE NORTHERN INDIANA
100 AM EST SAT JAN 31 2015

NOTE: "FAIR" INDICATES FEW OR NO CLOUDS BELOW 12,000 FEET WITH NO
SIGNIFICANT WEATHER AND/OR OBSTRUCTIONS TO VISIBILITY.

* THESE STATIONS ARE NOT UNDER NWS QUALITY CONTROL. THEY ALSO MAY NOT
  REPORT WEATHER SUCH AS PRECIPITATION OR FOG.

INZ001>027-310700-
NORTHERN INDIANA

CITY           SKY/WX    TMP DP  RH WIND       PRES   REMARKS
GARY*          CLEAR     20  13  75 CALM      30.37F
VALPARAISO     CLEAR     18  14  84 S3        30.36F
6HR MIN TEMP:  17; 6HR MAX TEMP:  23;

MICHIGAN CITY* CLEAR     19  12  73 S3        30.36F
LAPORTE*       CLOUDY    20  15  81 SW3       30.37S
6HR MIN TEMP:  17; 6HR MAX TEMP:  23;

KNOX*          CLEAR     18   7  62 S6        30.37F WCI   9
SOUTH BEND     CLEAR     16  10  77 CALM      30.37F
6HR MIN TEMP:  16; 6HR MAX TEMP:  22;

GOSHEN         CLEAR     18  13  80 S5        30.36F WCI  11
6HR MIN TEMP:  17; 6HR MAX TEMP:  24;

MONTICELLO*    CLEAR     22  17  83 S3        30.39S
6HR MIN TEMP:  20; 6HR MAX TEMP:  26;

LOGANSPORT*    CLEAR     19  18  93 S5        30.40S WCI  13
ROCHESTER*     CLEAR     21  19  93 S3        30.39S
WARSAW*        CLEAR     18  14  86 CALM      30.37F
ANGOLA*        CLEAR     10   9  92 CALM      30.35F
FORT WAYNE     PTCLDY    18  14  84 S8        30.38F WCI   8
6HR MIN TEMP:  17; 6HR MAX TEMP:  24;

HUNTINGTON*    CLEAR     18  11  76 CALM      30.37F
6HR MIN TEMP:  15; 6HR MAX TEMP:  24;

PERU/GRISSOM   CLEAR     17  13  85 S5        30.38F WCI  10
6HR MIN TEMP:  17; 6HR MAX TEMP:  24;

MARION*        CLEAR     19  16  87 S5        30.39F WCI  12
6HR MIN TEMP:  -2; 6HR MAX TEMP:  46;


$$
INZ028>050-310700-
CENTRAL INDIANA

CITY           SKY/WX    TMP DP  RH WIND       PRES   REMARKS
LAFAYETTE      CLEAR     19  16  88 CALM      30.40F
6HR MIN TEMP:  18; 6HR MAX TEMP:  26;

KOKOMO*        CLEAR     19  14  79 S3        30.39F
6HR MIN TEMP:  19; 6HR MAX TEMP:  27;

MUNCIE*        CLEAR     19  14  81 S5        30.39F WCI  12
6HR MIN TEMP:  19; 6HR MAX TEMP:  24;

INDIANAPOLIS   CLEAR     20  15  81 SE5       30.40F WCI  13
6HR MIN TEMP:  20; 6HR MAX TEMP:  25;


$$
MIZ043>046-050>051-056>058-064>065-071>073-077>080-310700-
SOUTHWEST LOWER MICHIGAN

CITY           SKY/WX    TMP DP  RH WIND       PRES   REMARKS
BATTLE CREEK   PTCLDY    13   7  77 S5        30.34F WCI   5
6HR MIN TEMP:  13; 6HR MAX TEMP:  22;

BENTON HARBOR  CLEAR     13  10  88 CALM      30.36F
6HR MIN TEMP:  13; 6HR MAX TEMP:  21;

COLDWATER*     CLEAR     11   9  91 CALM      30.35F
6HR MIN TEMP:  11; 6HR MAX TEMP:  18;

HILLSDALE*     CLEAR     10   7  87 CALM      30.33F
6HR MIN TEMP:  10; 6HR MAX TEMP:  18;

HOLLAND        MOCLDY    21  14  74 S9        30.34F WCI  11
6HR MIN TEMP:  19; 6HR MAX TEMP:  24;

GRAND RAPIDS   CLOUDY    19  12  74 S8        30.33F WCI   9
6HR MIN TEMP:  17; 6HR MAX TEMP:  20;

KALAMAZOO      CLEAR     18  12  77 CALM      30.35F
6HR MIN TEMP:  16; 6HR MAX TEMP:  23;

STURGIS*       CLOUDY    16  12  86 CALM      30.35F
THREE RIVERS*  CLOUDY    17  14  88 CALM      30.36F

$$
OHZ001>008-015>018-024>025-310700-
NORTHWEST OHIO

CITY           SKY/WX    TMP DP  RH WIND       PRES   REMARKS
WAUSEON*       FAIR      16  10  79 SW3       30.38F
DEFIANCE       CLEAR     15  11  83 S3        30.39F
6HR MIN TEMP:  15; 6HR MAX TEMP:  22;

FINDLAY        CLEAR     15   8  73 S6        30.38F WCI   6
6HR MIN TEMP:  10; 6HR MAX TEMP:  19;

TOLEDO EXPRESS PTCLDY    13   8  81 CALM      30.38F
6HR MIN TEMP:  11; 6HR MAX TEMP:  18;

TOLEDO METCALF PTCLDY    16   9  74 S5        30.40F WCI   9
6HR MIN TEMP:  16; 6HR MAX TEMP:  21;

LIMA           CLEAR     15  10  80 S7        30.38F WCI   5
6HR MIN TEMP:  15; 6HR MAX TEMP:  21;


$$
AND FOR LAKE MICHIGAN COASTAL AND OPEN LAKE BUOY OBSERVATIONS

STATION/POSITION TEMP    WIND        PRES    VSBY  WAVE
                 AIR SEA DIR/SP/G                  HT/PER
                 (F)     (DEG/KT/KT) (MB)    (MI)  (FT/S)
CALUMET HARBOR    24     200/  4/  5   N/A
MICHIGAN CITY     23     170/  9/ 11   N/A
SAINT JOSEPH      20     130/  5/  8 1027.8F

$$
&&


USA.gov is the U.S. government's official web portal to all federal, state and local government web resources and services.